Flag for U.S.A. Weather past 2 weeks in Tallahassee, Florida, U.S.A.

Now
48 °F

Partly sunny.


Feels Like: 48 °F
Forecast: 40 / 65 °F
Wind: No wind

Location: Tallahassee Regional Airport

Current Time: Dec 19, 2014 at 8:21:14 AM

Latest Report: Dec 19, 2014 at 7:53 AM


Visibility: 10 mi

Pressure: 30.14 "Hg

Humidity: 68%

Dew point: 38 °F

Location of TallahasseeLocation

Historic Weather in Tallahassee — Graph

°F

Tallahassee temperature yesterday

Maximum temperature yesterday: 63 °F (at 1:53 PM)
Minimum temperature yesterday: 39 °F (at 1:53 AM)
Average temperature yesterday: 49 °F

Past Weeks' High & Low Weather Summary

 TemperatureHumidityPressure
High80 °F (Dec 4, 12:53 PM)93% (Dec 16, 3:53 AM)30.33 "Hg (Dec 16, 3:53 AM)
Low30 °F (Dec 12, 6:53 AM)18% (Dec 12, 2:53 PM)30.03 "Hg (Dec 16, 2:53 PM)
Average52 °F68%30.17 "Hg
* Reported Dec 4 6:53 AM — Dec 19 6:53 AM, Tallahassee, Weather by CustomWeather, © 2014

Note: Actual official high and low records may vary slightly from our data, if they occured in-between our weather recording intervals... More about our weather records

Advertising

Tallahassee weather history for previous 24 hours

 ConditionsComfort  
Time TempWeatherWind HumidityBarometerVisibility
6:53 AM
Dec 19
46 °FPassing clouds.3 mph77%30.13 "Hg10 mi
5:53 AM45 °FPassing clouds.3 mph80%30.12 "Hg10 mi
4:53 AM46 °FClear.No wind79%30.09 "Hg10 mi
3:53 AM45 °FClear.5 mph82%30.11 "Hg10 mi
2:53 AM46 °FClear.No wind83%30.11 "Hg10 mi
1:53 AM44 °FClear.No wind82%30.12 "Hg10 mi
12:53 AM41 °FClear.No wind86%30.14 "Hg10 mi
11:53 PM
Dec 18
42 °FClear.No wind85%30.14 "Hg10 mi
10:53 PM44 °FClear.No wind85%30.15 "Hg10 mi
9:53 PM46 °FClear.No wind83%30.14 "Hg10 mi
8:53 PM51 °FPassing clouds.No wind77%30.14 "Hg10 mi
7:53 PM50 °FHigh level clouds.No wind80%30.13 "Hg10 mi
6:53 PM52 °FPassing clouds.No wind72%30.11 "Hg10 mi
5:53 PM54 °FPassing clouds.No wind67%30.11 "Hg10 mi
4:53 PM61 °FScattered clouds.3 mph50%30.11 "Hg10 mi
3:53 PM63 °FScattered clouds.6 mph43%30.10 "Hg10 mi
2:53 PM63 °FPartly sunny.6 mph43%30.12 "Hg10 mi
1:53 PM63 °FPartly sunny.5 mph43%30.13 "Hg10 mi
12:53 PM59 °FPartly sunny.No wind51%30.15 "Hg10 mi
11:53 AM55 °FPartly sunny.3 mph62%30.20 "Hg10 mi
10:53 AM52 °FSunny.No wind69%30.20 "Hg10 mi
9:53 AM49 °FPartly sunny.3 mph74%30.21 "Hg10 mi
8:53 AM45 °FPartly sunny.No wind82%30.20 "Hg10 mi
Weather by CustomWeather, © 2014

See weather overviewHow to use our weather pages